STARLINK-32354, 61932

Orbit data source: Space-Track

STARLINK-32354, 61932 is a payload satellite owned by SpaceX/Seattle (US) in LEO that was launched on Mon, 11 Nov 2024 UTC via an FALCON 9 launch vehicle from the Air Force Eastern Test Range (AFETR). Payload-class satellites include a variety of spacecraft equipped with specific instruments for various scientific and technological missions. These include communications satellites like Starlink; space stations such as the ISS; scientific satellites like the Hubble; Earth observation satellites from companies like Planet Labs, Umbra, and HawkEye 360; GPS; miniature CubeSats for education and research; and military/defense satellites.

Loading next visibility...
Identifier
61932, 2024-207W
Orbit
LEO
Country
Flag of USUS
Related business
Manufacturer
SpaceX/Seattle
Mission
Operational Commercial Communications
Bus & Motor
STARLINK V2M, Unknown motor
Mass
730 kg wet, ~700 kg dry
Launch date (UTC)
2024-11-11 (2 years ago)
Launch vehicle
FALCON 9
Launch site
Air Force Eastern Test Range (AFETR)
Object type
Payload
Rocket body
Debris
Shape & HBR
Box + 2 Pan, 17.7 m
Radar Cross Section
33.884 m², Large (>1 m²)

Expand to show TLE details & history
Last TLE update: 13 hours ago

TLE from 13 hours ago
0 STARLINK-32354
1 61932U 24207W   26145.48776340  .00014048  00000-0  51896-3 0  9992
2 61932  43.0035 211.8024 0000591 285.9755  74.1032 15.27584915 86910
Epoch: 2026-05-25T11:42Z
TLE epoch observation values (Epoch: 2026-05-25T11:42:22.757Z)
Latitude
-0°
Longitude
153.13274°
Altitude
482.699 km
Speed
7.626 km/s
True Right ascension
14h 07m 12s
True Declination
0° 00' 00"
Sunlit
Object was in full shadow at epoch
Visualization orbit readout
Latitude
Unknown
Longitude
Unknown
Altitude
Unknown
Speed
Unknown
Apparent Right ascension
Unknown
Apparent Declination
Unknown
Sunlit
N/A
Visualization observer readout
Local Sidereal Time
10:13:06
Azimuth
Unknown
Elevation
Unknown
Doppler factor
Unknown
Orbital elements
Apogee altitude
485.385 km
Perigee altitude
484.573 km
Semi-major axis
6,863.116 km
Eccentricity
0.00006
Inclination
43.0035°
RAAN
211.8024°
Arg. of periapsis
285.9755°
True anomaly
74.10971°
Mean anomaly
74.1032°
Eccentric anomaly
74.10646°
Mean motion
3.81734 °/min
Orbital period
94.31 mins
BSTAR
0.00051896
Loading maneuver chart data...
Computing Atmospheric mass density...
Loading historical data...
Loading historical data...
Loading historical data...
Loading historical data...
Loading historical data...
Loading historical data...
Loading historical data...

Documentation

Showing up to 5 results
|